| time (UTC) | temp C | wind direction | speed KPH | gust KPH | rain 1hr cm | rain 24hr cm | rain mn cm | humidity % | barometer mb |
| 20260509173603 | 12 | 322 | 14.5 | 22.5 | 0.00 | 0.00 | 0.00 | 37 | 1020.1 |
| 20260509172725 | 12 | 317 | 11.3 | 22.5 | 0.00 | 0.00 | 0.00 | 38 | 1020.1 |
| 20260509171825 | 12 | 316 | 11.3 | 17.7 | 0.00 | 0.00 | 0.00 | 37 | 1020.2 |
| 20260509170904 | 12 | 319 | 11.3 | 17.7 | 0.00 | 0.00 | 0.00 | 38 | 1020.2 |
| 20260509170025 | 12 | 314 | 11.3 | 17.7 | 0.00 | 0.00 | 0.00 | 38 | 1020.2 |
| 20260509165404 | 12 | 306 | 11.3 | 20.9 | 0.00 | 0.00 | 0.00 | 39 | 1020.2 |
| 20260509164504 | 13 | 308 | 8.0 | 19.3 | 0.00 | 0.00 | 0.00 | 39 | 1020.2 |
| 20260509163604 | 13 | 317 | 9.7 | 17.7 | 0.00 | 0.00 | 0.00 | 39 | 1020.2 |
| 20260509162704 | 14 | 289 | 8.0 | 16.1 | 0.00 | 0.00 | 0.00 | 36 | 1020.3 |
| 20260509161804 | 15 | 159 | 9.7 | 17.7 | 0.00 | 0.00 | 0.00 | 36 | 1020.1 |
| 20260509160904 | 15 | 172 | 8.0 | 24.1 | 0.00 | 0.00 | 0.00 | 36 | 1020.2 |
| 20260509160004 | 16 | 174 | 9.7 | 22.5 | 0.00 | 0.00 | 0.00 | 34 | 1020.3 |
| 20260509155404 | 16 | 169 | 9.7 | 22.5 | 0.00 | 0.00 | 0.00 | 34 | 1020.3 |
| 20260509154504 | 16 | 174 | 6.4 | 22.5 | 0.00 | 0.00 | 0.00 | 34 | 1020.5 |
| 20260509153625 | 16 | 170 | 8.0 | 22.5 | 0.00 | 0.00 | 0.00 | 34 | 1020.5 |
| 20260509152725 | 16 | 157 | 8.0 | 22.5 | 0.00 | 0.00 | 0.00 | 36 | 1020.6 |
| 20260509151804 | 15 | 171 | 6.4 | 12.9 | 0.00 | 0.00 | 0.00 | 38 | 1020.8 |
| 20260509150903 | 15 | 172 | 8.0 | 16.1 | 0.00 | 0.00 | 0.00 | 37 | 1021.0 |
| 20260509150004 | 15 | 174 | 4.8 | 16.1 | 0.00 | 0.00 | 0.00 | 37 | 1021.1 |
| 20260509145404 | 15 | 218 | 3.2 | 6.4 | 0.00 | 0.00 | 0.00 | 37 | 1021.1 |
| 20260509144503 | 15 | 172 | 3.2 | 9.7 | 0.00 | 0.00 | 0.00 | 35 | 1021.2 |
| 20260509143625 | 15 | 176 | 6.4 | 16.1 | 0.00 | 0.00 | 0.00 | 34 | 1021.4 |
| 20260509142703 | 15 | 149 | 3.2 | 9.7 | 0.00 | 0.00 | 0.00 | 38 | 1021.4 |
| 20260509141804 | 15 | 139 | 4.8 | 8.0 | 0.00 | 0.00 | 0.00 | 37 | 1021.5 |
| 20260509140904 | 15 | 140 | 8.0 | 16.1 | 0.00 | 0.00 | 0.00 | 36 | 1021.7 |
| 20260509140005 | 15 | 154 | 8.0 | 19.3 | 0.00 | 0.00 | 0.00 | 35 | 1021.8 |
| 20260509135403 | 15 | 169 | 9.7 | 14.5 | 0.00 | 0.00 | 0.00 | 35 | 1022.0 |
| 20260509134504 | 16 | 170 | 8.0 | 16.1 | 0.00 | 0.00 | 0.00 | 35 | 1022.0 |
| 20260509133603 | 15 | 235 | 4.8 | 11.3 | 0.00 | 0.00 | 0.00 | 35 | 1022.3 |
| 20260509132704 | 15 | 184 | 4.8 | 17.7 | 0.00 | 0.00 | 0.00 | 34 | 1022.4 |
| 20260509131803 | 15 | 183 | 6.4 | 17.7 | 0.00 | 0.00 | 0.00 | 35 | 1022.5 |
| 20260509130904 | 15 | 175 | 9.7 | 22.5 | 0.00 | 0.00 | 0.00 | 34 | 1022.6 |
| 20260509130004 | 15 | 163 | 11.3 | 22.5 | 0.00 | 0.00 | 0.00 | 34 | 1022.8 |
| 20260509125404 | 15 | 170 | 9.7 | 22.5 | 0.00 | 0.00 | 0.00 | 35 | 1022.8 |
| 20260509124525 | 15 | 253 | 6.4 | 17.7 | 0.00 | 0.00 | 0.00 | 35 | 1022.8 |
| 20260509123603 | 15 | 229 | 6.4 | 17.7 | 0.00 | 0.00 | 0.00 | 34 | 1023.0 |
| 20260509122704 | 15 | 186 | 6.4 | 17.7 | 0.00 | 0.00 | 0.00 | 35 | 1023.1 |
| 20260509121804 | 15 | 169 | 8.0 | 19.3 | 0.00 | 0.00 | 0.00 | 35 | 1023.3 |
| 20260509120924 | 15 | 244 | 4.8 | 16.1 | 0.00 | 0.00 | 0.00 | 37 | 1023.4 |
| 20260509120025 | 15 | 201 | 6.4 | 16.1 | 0.00 | 0.00 | 0.00 | 36 | 1023.5 |
| 20260509115403 | 15 | 177 | 6.4 | 16.1 | 0.00 | 0.00 | 0.00 | 36 | 1023.5 |
| 20260509114525 | 15 | 201 | 4.8 | 14.5 | 0.00 | 0.00 | 0.00 | 36 | 1023.5 |
| 20260509113604 | 15 | 176 | 6.4 | 14.5 | 0.00 | 0.00 | 0.00 | 36 | 1023.6 |
| 20260509112704 | 15 | 191 | 6.4 | 12.9 | 0.00 | 0.00 | 0.00 | 35 | 1023.7 |
| 20260509111803 | 15 | 177 | 8.0 | 19.3 | 0.00 | 0.00 | 0.00 | 34 | 1023.8 |
| 20260509110903 | 15 | 174 | 4.8 | 16.1 | 0.00 | 0.00 | 0.00 | 37 | 1023.7 |
| 20260509110004 | 15 | 179 | 6.4 | 14.5 | 0.00 | 0.00 | 0.00 | 36 | 1023.8 |
| 20260509105404 | 14 | 202 | 4.8 | 17.7 | 0.00 | 0.00 | 0.00 | 36 | 1023.9 |
| 20260509104504 | 14 | 195 | 6.4 | 20.9 | 0.00 | 0.00 | 0.00 | 36 | 1024.0 |
| 20260509103603 | 14 | 199 | 6.4 | 17.7 | 0.00 | 0.00 | 0.00 | 33 | 1024.1 |
| 20260509102704 | 14 | 196 | 8.0 | 16.1 | 0.00 | 0.00 | 0.00 | 35 | 1024.1 |
| 20260509101803 | 14 | 165 | 9.7 | 24.1 | 0.00 | 0.00 | 0.00 | 35 | 1024.2 |
| 20260509100903 | 14 | 166 | 4.8 | 14.5 | 0.00 | 0.00 | 0.00 | 34 | 1024.3 |
| 20260509100005 | 14 | 176 | 9.7 | 22.5 | 0.00 | 0.00 | 0.00 | 33 | 1024.4 |
| 20260509095403 | 14 | 164 | 14.5 | 24.1 | 0.00 | 0.00 | 0.00 | 35 | 1024.4 |
| 20260509094504 | 15 | 165 | 12.9 | 24.1 | 0.00 | 0.00 | 0.00 | 35 | 1024.5 |
| 20260509093603 | 14 | 179 | 9.7 | 22.5 | 0.00 | 0.00 | 0.00 | 35 | 1024.5 |
| 20260509092704 | 14 | 170 | 14.5 | 30.6 | 0.00 | 0.00 | 0.00 | 33 | 1024.6 |
| 20260509091803 | 14 | 175 | 9.7 | 22.5 | 0.00 | 0.00 | 0.00 | 34 | 1024.6 |
| 20260509090903 | 14 | 170 | 12.9 | 30.6 | 0.00 | 0.00 | 0.00 | 35 | 1024.8 |
| 20260509090004 | 14 | 191 | 6.4 | 17.7 | 0.00 | 0.00 | 0.00 | 37 | 1024.8 |
| 20260509085403 | 14 | 187 | 8.0 | 22.5 | 0.00 | 0.00 | 0.00 | 38 | 1024.8 |
| 20260509084503 | 13 | 177 | 11.3 | 25.7 | 0.00 | 0.00 | 0.00 | 37 | 1025.0 |
| 20260509083625 | 13 | 165 | 12.9 | 25.7 | 0.00 | 0.00 | 0.00 | 36 | 1025.1 |
| 20260509082704 | 13 | 168 | 11.3 | 22.5 | 0.00 | 0.00 | 0.00 | 36 | 1025.2 |
| 20260509081804 | 13 | 182 | 8.0 | 22.5 | 0.00 | 0.00 | 0.00 | 36 | 1025.2 |
| 20260509080903 | 13 | 174 | 11.3 | 22.5 | 0.00 | 0.00 | 0.00 | 37 | 1025.3 |
| 20260509080025 | 13 | 169 | 12.9 | 24.1 | 0.00 | 0.00 | 0.00 | 36 | 1025.3 |
| 20260509075404 | 13 | 155 | 14.5 | 24.1 | 0.00 | 0.00 | 0.00 | 38 | 1025.3 |
| 20260509074525 | 13 | 163 | 12.9 | 27.4 | 0.00 | 0.00 | 0.00 | 37 | 1025.4 |
| 20260509073603 | 13 | 161 | 11.3 | 24.1 | 0.00 | 0.00 | 0.00 | 38 | 1025.5 |
| 20260509072704 | 12 | 166 | 12.9 | 25.7 | 0.00 | 0.00 | 0.00 | 37 | 1025.5 |
| 20260509071825 | 12 | 166 | 14.5 | 27.4 | 0.00 | 0.00 | 0.00 | 39 | 1025.6 |
| 20260509070903 | 12 | 167 | 17.7 | 29.0 | 0.00 | 0.00 | 0.00 | 39 | 1025.7 |
| 20260509070003 | 11 | 165 | 16.1 | 30.6 | 0.00 | 0.00 | 0.00 | 40 | 1025.6 |
| 20260509065453 | 11 | 164 | 14.5 | 25.7 | 0.00 | 0.00 | 0.00 | 41 | 1025.7 |
| 20260509064504 | 11 | 150 | 14.5 | 24.1 | 0.00 | 0.00 | 0.00 | 44 | 1025.7 |
| 20260509063625 | 11 | 151 | 12.9 | 22.5 | 0.00 | 0.00 | 0.00 | 45 | 1025.7 |
| 20260509062725 | 11 | 164 | 11.3 | 24.1 | 0.00 | 0.00 | 0.00 | 45 | 1025.8 |
| 20260509061804 | 10 | 168 | 12.9 | 24.1 | 0.00 | 0.00 | 0.00 | 48 | 1025.8 |
| 20260509060925 | 10 | 156 | 12.9 | 20.9 | 0.00 | 0.00 | 0.00 | 47 | 1025.9 |
| 20260509060004 | 10 | 156 | 12.9 | 20.9 | 0.00 | 0.00 | 0.00 | 47 | 1025.8 |
| 20260509055403 | 9 | 159 | 12.9 | 20.9 | 0.00 | 0.03 | 0.00 | 49 | 1025.8 |
| 20260509054524 | 8 | 151 | 11.3 | 17.7 | 0.00 | 0.03 | 0.00 | 52 | 1025.8 |
| 20260509053625 | 8 | 157 | 9.7 | 17.7 | 0.00 | 0.03 | 0.00 | 54 | 1025.8 |
| 20260509052704 | 8 | 163 | 9.7 | 16.1 | 0.00 | 0.03 | 0.00 | 57 | 1025.9 |
| 20260509050904 | 7 | 161 | 6.4 | 11.3 | 0.00 | 0.03 | 0.00 | 61 | 1025.6 |
| 20260509050004 | 7 | 158 | 6.4 | 11.3 | 0.00 | 0.03 | 0.00 | 60 | 1025.4 |
| 20260509045404 | 7 | 159 | 6.4 | 11.3 | 0.00 | 0.05 | 0.00 | 61 | 1025.9 |
| 20260509044504 | 6 | 155 | 4.8 | 8.0 | 0.00 | 0.05 | 0.00 | 62 | 1025.6 |
| 20260509043604 | 6 | 166 | 4.8 | 9.7 | 0.00 | 0.05 | 0.00 | 63 | 1025.6 |
| 20260509042703 | 5 | 164 | 4.8 | 8.0 | 0.00 | 0.05 | 0.00 | 64 | 1026.0 |
| 20260509041825 | 4 | 165 | 4.8 | 8.0 | 0.00 | 0.08 | 0.00 | 65 | 1026.0 |
| 20260509040925 | 3 | 147 | 3.2 | 8.0 | 0.00 | 0.08 | 0.00 | 67 | 1025.9 |
| 20260509040025 | 2 | 168 | 4.8 | 9.7 | 0.00 | 0.13 | 0.00 | 69 | 1025.0 |
| 20260509035404 | 2 | 172 | 3.2 | 9.7 | 0.00 | 0.13 | 0.00 | 71 | 1023.6 |
| 20260509034503 | 1 | 151 | 3.2 | 8.0 | 0.00 | 0.13 | 0.00 | 71 | 1026.3 |
| 20260509033624 | 1 | 152 | 3.2 | 6.4 | 0.00 | 0.13 | 0.00 | 71 | 1026.3 |
| 20260509032725 | 0 | 165 | 3.2 | 6.4 | 0.00 | 0.13 | 0.00 | 71 | 1026.2 |
| 20260509031824 | 0 | 163 | 4.8 | 8.0 | 0.00 | 0.13 | 0.00 | 72 | 1026.3 |
| 20260509030903 | 0 | 161 | 4.8 | 11.3 | 0.00 | 0.13 | 0.00 | 74 | 1026.3 |
| 20260509030004 | 0 | 171 | 3.2 | 9.7 | 0.00 | 0.13 | 0.00 | 75 | 1026.2 |
| 20260509025404 | 0 | 173 | 3.2 | 9.7 | 0.00 | 0.13 | 0.00 | 76 | 1026.3 |
| 20260509024503 | -1 | 173 | 1.6 | 9.7 | 0.00 | 0.13 | 0.00 | 76 | 1026.3 |
| 20260509023603 | -1 | 151 | 1.6 | 3.2 | 0.00 | 0.13 | 0.00 | 76 | 1026.4 |
| 20260509022703 | -1 | 151 | 0.0 | 3.2 | 0.00 | 0.13 | 0.00 | 76 | 1026.3 |
| 20260509021803 | -1 | 151 | 0.0 | 3.2 | 0.00 | 0.13 | 0.00 | 77 | 1026.3 |
| 20260509020903 | -1 | 151 | 0.0 | 1.6 | 0.00 | 0.13 | 0.00 | 77 | 1026.3 |
| 20260509020024 | -1 | 151 | 0.0 | 1.6 | 0.00 | 0.13 | 0.00 | 77 | 1026.2 |
| 20260509015403 | -1 | 187 | 1.6 | 6.4 | 0.00 | 0.13 | 0.00 | 77 | 1026.3 |
| 20260509014524 | -1 | 206 | 0.0 | 6.4 | 0.00 | 0.13 | 0.00 | 78 | 1026.4 |
| 20260509013604 | -1 | 200 | 0.0 | 3.2 | 0.00 | 0.13 | 0.00 | 78 | 1026.4 |
| 20260509012724 | -1 | 0 | 0.0 | 0.0 | 0.00 | 0.13 | 0.00 | 78 | 1026.4 |
| 20260509011804 | -1 | 120 | 0.0 | 1.6 | 0.00 | 0.13 | 0.00 | 78 | 1026.4 |
| 20260509010903 | -1 | 50 | 0.0 | 4.8 | 0.00 | 0.13 | 0.00 | 77 | 1026.3 |
| 20260509010004 | -1 | 335 | 0.0 | 4.8 | 0.00 | 0.13 | 0.00 | 77 | 1026.3 |
| 20260509005403 | -1 | 335 | 0.0 | 4.8 | 0.00 | 0.13 | 0.00 | 77 | 1026.3 |
| 20260509004524 | -1 | 335 | 0.0 | 1.6 | 0.00 | 0.13 | 0.00 | 77 | 1026.3 |
| 20260509003604 | -1 | 335 | 0.0 | 3.2 | 0.00 | 0.13 | 0.00 | 77 | 1026.4 |
| 20260509002725 | -1 | 335 | 0.0 | 3.2 | 0.00 | 0.13 | 0.00 | 78 | 1026.3 |
| 20260509001803 | -1 | 335 | 0.0 | 3.2 | 0.00 | 0.13 | 0.00 | 79 | 1026.3 |
| 20260509000904 | -1 | 335 | 1.6 | 4.8 | 0.00 | 0.13 | 0.00 | 78 | 1026.4 |
| 20260509000025 | -1 | 335 | 0.0 | 3.2 | 0.00 | 0.13 | 0.00 | 77 | 1026.4 |
| 20260508235404 | -1 | 0 | 0.0 | 0.0 | 0.00 | 0.13 | 0.00 | 78 | 1026.4 |
| 20260508234504 | 0 | 0 | 0.0 | 0.0 | 0.00 | 0.13 | 0.00 | 76 | 1026.3 |
| 20260508233603 | 0 | 0 | 0.0 | 0.0 | 0.00 | 0.13 | 0.00 | 77 | 1026.3 |
| 20260508232724 | 0 | 0 | 0.0 | 0.0 | 0.00 | 0.13 | 0.00 | 77 | 1026.3 |
| 20260508231803 | 0 | 0 | 0.0 | 0.0 | 0.00 | 0.13 | 0.00 | 76 | 1026.3 |
| 20260508230904 | 0 | 0 | 0.0 | 0.0 | 0.00 | 0.13 | 0.00 | 77 | 1026.3 |
| 20260508230003 | 0 | 0 | 0.0 | 0.0 | 0.00 | 0.13 | 0.00 | 76 | 1026.3 |
| 20260508225404 | 0 | 0 | 0.0 | 0.0 | 0.00 | 0.13 | 0.00 | 76 | 1026.3 |
| 20260508224503 | 0 | 0 | 0.0 | 0.0 | 0.00 | 0.13 | 0.00 | 76 | 1026.3 |
| 20260508223603 | 0 | 0 | 0.0 | 0.0 | 0.00 | 0.13 | 0.00 | 76 | 1026.2 |
| 20260508222724 | 0 | 0 | 0.0 | 0.0 | 0.00 | 0.13 | 0.00 | 76 | 1026.2 |
| 20260508221803 | 0 | 0 | 0.0 | 0.0 | 0.00 | 0.13 | 0.00 | 76 | 1026.3 |
| 20260508220904 | 0 | 0 | 0.0 | 0.0 | 0.00 | 0.13 | 0.00 | 75 | 1026.3 |
| 20260508220003 | 0 | 0 | 0.0 | 0.0 | 0.00 | 0.13 | 0.00 | 75 | 1026.2 |
| 20260508215403 | 0 | 0 | 0.0 | 0.0 | 0.00 | 0.13 | 0.00 | 74 | 1026.2 |
| 20260508214503 | 0 | 0 | 0.0 | 0.0 | 0.00 | 0.13 | 0.00 | 75 | 1026.2 |
| 20260508213603 | 0 | 335 | 0.0 | 3.2 | 0.00 | 0.13 | 0.00 | 75 | 1026.2 |
| 20260508212703 | 0 | 335 | 0.0 | 3.2 | 0.00 | 0.13 | 0.00 | 74 | 1026.1 |
| 20260508211804 | 0 | 335 | 1.6 | 3.2 | 0.00 | 0.13 | 0.00 | 74 | 1026.0 |
| 20260508210903 | 1 | 335 | 1.6 | 4.8 | 0.00 | 0.13 | 0.00 | 73 | 1026.0 |
| 20260508210004 | 1 | 335 | 1.6 | 4.8 | 0.00 | 0.13 | 0.00 | 74 | 1025.9 |
| 20260508205404 | 0 | 335 | 0.0 | 3.2 | 0.00 | 0.13 | 0.13 | 77 | 1025.8 |
| 20260508204503 | 0 | 335 | 0.0 | 1.6 | 0.00 | 0.13 | 0.13 | 76 | 1025.8 |
| 20260508203603 | 1 | 335 | 1.6 | 3.2 | 0.00 | 0.13 | 0.13 | 74 | 1025.8 |
| 20260508202724 | 1 | 335 | 3.2 | 4.8 | 0.00 | 0.13 | 0.13 | 73 | 1025.7 |
| 20260508201803 | 1 | 335 | 4.8 | 4.8 | 0.00 | 0.13 | 0.13 | 72 | 1025.7 |
| 20260508200904 | 1 | 335 | 4.8 | 4.8 | 0.00 | 0.13 | 0.13 | 71 | 1025.6 |
| 20260508200004 | 1 | 335 | 3.2 | 4.8 | 0.00 | 0.15 | 0.13 | 71 | 1025.6 |
| 20260508195403 | 2 | 335 | 3.2 | 4.8 | 0.00 | 0.15 | 0.13 | 71 | 1025.5 |
| 20260508194503 | 2 | 335 | 3.2 | 4.8 | 0.00 | 0.20 | 0.13 | 69 | 1025.3 |
| 20260508193603 | 1 | 335 | 4.8 | 8.0 | 0.00 | 0.25 | 0.13 | 72 | 1025.2 |
| 20260508192703 | 1 | 328 | 6.4 | 8.0 | 0.00 | 0.30 | 0.13 | 73 | 1025.1 |
| 20260508191804 | 2 | 315 | 4.8 | 6.4 | 0.00 | 0.36 | 0.13 | 70 | 1025.0 |
| 20260508190903 | 2 | 315 | 4.8 | 6.4 | 0.00 | 0.38 | 0.13 | 68 | 1025.0 |
| 20260508190025 | 3 | 315 | 4.8 | 6.4 | 0.00 | 0.38 | 0.13 | 64 | 1025.0 |
| 20260508185424 | 3 | 315 | 3.2 | 4.8 | 0.00 | 0.41 | 0.13 | 64 | 1024.9 |
| 20260508184504 | 3 | 315 | 3.2 | 4.8 | 0.00 | 0.41 | 0.13 | 64 | 1024.8 |
| 20260508183604 | 3 | 315 | 3.2 | 4.8 | 0.00 | 0.41 | 0.13 | 64 | 1024.6 |
| 20260508182703 | 3 | 315 | 3.2 | 4.8 | 0.00 | 0.43 | 0.13 | 63 | 1024.6 |
| 20260508181824 | 4 | 315 | 3.2 | 4.8 | 0.00 | 0.43 | 0.13 | 62 | 1024.5 |
| 20260508180904 | 5 | 315 | 4.8 | 4.8 | 0.00 | 0.46 | 0.13 | 60 | 1024.5 |
| 20260508180003 | 6 | 315 | 4.8 | 6.4 | 0.00 | 0.48 | 0.13 | 57 | 1024.5 |
| 20260508175403 | 7 | 315 | 3.2 | 6.4 | 0.00 | 0.51 | 0.13 | 54 | 1024.5 |
| 20260508174503 | 8 | 315 | 3.2 | 8.0 | 0.00 | 0.58 | 0.13 | 47 | 1024.4 |